This demonstration page uses our WeatherBlox Daily Observations layout. Learn more.

Left ArrowRight Arrow

39.92423, -83.80882

Hourly Observations for February 19, 2022

Temp ( °F °C ) Dew Point ( °F °C ) Humidity (%) Winds ( mph kmh ) Pressure ( in mb ) Visibility ( mi km ) Precip ( " mm )
12:56 am 00:56 Clear 28 -2.2 20 -6.7 72 72 SW 15 24 30.04 1017 10 16 0.00 0.00
1:56 am 01:56 Clear 29 -1.7 19 -7.2 66 66 SW 20 31 30.01 1016 10 16 0.00 0.00
2:56 am 02:56 Clear 29 -1.7 19 -7.2 66 66 SW 20 31 30.00 1016 10 16 0.00 0.00
3:56 am 03:56 Partly Cloudy 30 -1.1 21 -6.1 69 69 WSW 20 31 30.00 1016 10 16 0.00 0.00
4:56 am 04:56 Cloudy 30 -1.1 22 -5.6 72 72 WSW 20 31 30.01 1016 10 16 0.00 0.00
5:56 am 05:56 Mostly Cloudy 31 -0.6 24 -4.4 76 76 W 23 37 30.04 1017 10 16 0.00 0.00
6:56 am 06:56 Clear 28 -2.2 17 -8.3 63 63 WNW 23 37 30.09 1019 10 16 0.00 0.00
7:56 am 07:56 Sunny 24 -4.4 12 -11.1 60 60 NW 24 39 30.16 1022 10 16 0.00 0.00
8:56 am 08:56 Sunny 23 -5 12 -11.1 63 63 WNW 25 41 30.24 1024 10 16 0.00 0.00
9:56 am 09:56 Mostly Sunny 23 -5 12 -11.1 63 63 WNW 21 33 30.29 1026 10 16 0.00 0.00
10:56 am 10:56 Mostly Cloudy 23 -5 12 -11.1 63 63 WNW 21 33 30.33 1027 10 16 0.00 0.00
11:56 am 11:56 Partly Cloudy 24 -4.4 12 -11.1 60 60 NW 17 28 30.37 1028 10 16 0.00 0.00
12:56 pm 12:56 Mostly Sunny 25 -3.9 12 -11.1 58 58 NW 20 31 30.40 1029 10 16 0.00 0.00
1:56 pm 13:56 Sunny 25 -3.9 13 -10.6 60 60 WNW 12 19 30.40 1029 10 16 0.00 0.00
2:56 pm 14:56 Partly Cloudy 25 -3.9 13 -10.6 60 60 WNW 14 22 30.43 1031 10 16 0.00 0.00
3:56 pm 15:56 Mostly Sunny 25 -3.9 13 -10.6 60 60 WNW 12 19 30.42 1030 10 16 0.00 0.00
4:56 pm 16:56 Mostly Sunny 25 -3.9 13 -10.6 60 60 WNW 12 19 30.44 1031 10 16 0.00 0.00
5:56 pm 17:56 Sunny 23 -5 11 -11.7 60 60 NW 12 19 30.45 1031 10 16 0.00 0.00
6:56 pm 18:56 Clear 20 -6.7 12 -11.1 71 71 NW 7 11 30.47 1032 10 16 0.00 0.00
7:56 pm 19:56 Clear 20 -6.7 12 -11.1 71 71 NW 3 6 30.47 1032 10 16 0.00 0.00
8:56 pm 20:56 Clear 19 -7.2 12 -11.1 74 74 NW 3 6 30.47 1032 10 16 0.00 0.00
9:56 pm 21:56 Clear 17 -8.3 15 -9.4 92 92 Calm 30.46 1031 10 16 0.00 0.00
10:56 pm 22:56 Clear 17 -8.3 16 -8.9 95 95 Calm 30.45 1031 10 16 0.00 0.00
11:56 pm 23:56 Clear 16 -8.9 15 -9.4 96 96 SSE 5 7 30.42 1030 10 16 0.00 0.00

Powered by AerisWeather